Location: Caracas
(10.5033°N, 66.8422°W)
Time: 03:24:45
(UTC-04:00)

Hubble Space Telescope - Pass Details

Date: 13 November 2017
Orbit: 537 x 541 km, 28.5° (Epoch: 22 November)

Event Time Altitude Azimuth Distance (km) Brightness Sun altitude
Exits shadow 04:38:38 57° 135° (SE) 629 1.2 -25.2°
Drops below altitude 10° 04:42:27 10° 71° (ENE) 1,776 4.1 -24.3°
Sets 04:44:44 0° 67° (ENE) 2,667 5.1 -23.7°
